Lid_Strength_Index
8 9 11 11 6 6 5 4 4 5 4 4 6 4 3 1 1 0 0 -0 -1 -1 -1 -1 -1 -1 -1 -1 -1 -1 -1 -1
10 11 9 8 7 5 5 4 4 4 6 4 2 3 2 1 0 1 0 -0 -1 -1 -1 -1 -1 -1 -1 -1 -1 -1 -1 -1
10 10 8 6 6 7 6 5 4 4 6 6 3 1 1 1 1 1 0 -0 -0 -1 -1 -1 -1 -1 -1 -1 -1 -1 -1 -1
11 10 8 6 5 7 7 5 4 4 5 6 2 2 1 1 1 0 1 -0 -0 -1 -1 -1 -1 -1 -1 -1 -1 -1 -1 -1
10 9 8 7 5 7 7 5 5 3 5 5 3 2 1 1 0 0 0 0 -0 -0 -1 -1 -1 -1 -1 -1 -1 -1 -1 -1
9 9 9 5 5 4 7 6 3 3 5 7 3 1 1 1 1 1 1 0 0 -0 -0 -0 -1 -1 -1 -1 -1 -1 -1 -1
9 8 8 5 5 4 3 5 4 3 4 3 2 1 2 2 2 1 1 0 0 0 -0 -0 -0 -1 -1 -1 -1 -1 -1 -1
6 6 6 5 5 5 5 5 5 5 3 2 2 2 3 3 3 2 2 1 0 0 -0 -0 -0 -0 -1 -1 -1 -1 -1 -1
5 5 5 5 5 4 5 6 4 6 5 3 3 3 3 3 3 2 2 1 1 0 -0 -0 -0 -0 -0 -1 -1 -1 -1 -1
5 5 5 6 4 5 5 5 3 4 3 3 3 3 3 3 3 2 2 1 1 0 0 -0 -0 -0 -0 -0 -0 -0 -1 -1
4 4 5 5 6 6 5 4 3 3 3 4 4 3 3 2 2 2 2 1 1 0 0 0 0 -0 -0 -0 -0 -0 -1 -1
5 5 5 5 6 5 5 3 4 3 3 4 4 3 3 3 3 2 2 1 1 0 0 0 0 0 0 -0 -0 -0 -1 -1
6 5 6 5 7 7 5 4 4 3 3 3 3 3 3 3 3 2 2 1 1 1 0 0 0 0 -0 -0 -0 -0 -0 -1
7 6 5 6 9 6 4 5 5 4 3 4 3 3 2 2 2 2 2 2 1 0 0 0 0 -0 -0 -0 -0 -0 -0 -1
8 6 6 6 8 6 4 4 5 4 4 3 3 3 3 3 2 2 2 2 2 1 1 1 0 -0 -0 -0 -0 -0 -0 -1
9 7 7 7 8 6 5 5 5 4 4 4 3 3 4 3 2 2 2 1 1 1 1 0 0 0 0 0 -0 -0 -0 -0
8 6 7 8 8 7 5 5 5 5 4 4 3 3 4 3 2 2 2 2 1 1 1 1 1 1 1 2 1 0 -0 -0
8 7 7 8 8 6 6 5 5 5 4 4 3 4 4 3 3 3 3 2 2 1 1 1 1 1 1 1 1 0 0 1
9 8 8 9 9 8 6 5 5 4 4 4 4 5 5 4 4 3 3 2 2 1 1 1 1 1 1 1 1 1 1 1
9 11 14 8 14 9 7 7 6 5 4 4 3 5 4 4 4 3 3 2 1 1 1 1 0 1 2 2 3 2 1 1